When you browse on this site, cookies collect data to enhance your experience and personalize the content and advertising you see.
Visit our Privacy Policy to learn more. By continuing to use the site, you agree to this use of cookies and data.
  • In Deutschland
  • Länderverzeichnis
  • Für 7 Tage
  • Wassertemperatur
  • Wetterkarte
  • Widgets
  • user-avatar
    Anmelden

    Stündliche Wetter Valerianovsk

    Heute, 16 Oktober, Mittwoch

    Zeit Temperatur Niederschläge Wind Luftdruck Luftfeuchtigkeit
    00:00 0°C° 0 mm 3 m/S 734 mmHg 85%
    01:00 0°C° 0 mm 3 m/S 734 mmHg 85%
    02:00 0°C° 0 mm 3 m/S 735 mmHg 84%
    03:00 0°C° 0 mm 3 m/S 735 mmHg 84%
    04:00 +1°C° 0 mm 3 m/S 735 mmHg 83%
    05:00 0°C° 0 mm 3 m/S 736 mmHg 82%
    06:00 0°C° 0 mm 3 m/S 736 mmHg 82%
    07:00 0°C° 0 mm 3 m/S 736 mmHg 81%
    08:00 +1°C° 0 mm 3 m/S 737 mmHg 78%
    09:00 +1°C° 0 mm 3 m/S 738 mmHg 75%
    10:00 +1°C° 0 mm 4 m/S 738 mmHg 72%
    11:00 +1°C° 0 mm 4 m/S 738 mmHg 70%
    12:00 +1°C° 0 mm 4 m/S 739 mmHg 69%
    13:00 +3°C° 0 mm 4 m/S 739 mmHg 67%
    14:00 +1°C° 0 mm 4 m/S 740 mmHg 68%
    15:00 +1°C° 0 mm 4 m/S 740 mmHg 70%
    16:00 0°C° 0 mm 4 m/S 741 mmHg 71%
    17:00 -1°C° 0 mm 4 m/S 742 mmHg 74%
    18:00 -1°C° 0 mm 4 m/S 742 mmHg 77%
    19:00 -2°C° 0 mm 4 m/S 742 mmHg 80%
    20:00 -2°C° 0 mm 4 m/S 743 mmHg 80%
    21:00 -2°C° 0 mm 4 m/S 743 mmHg 80%
    22:00 -1°C° 0 mm 3 m/S 743 mmHg 80%
    23:00 -1°C° 0 mm 3 m/S 743 mmHg 80%

    Morgen, 17 Oktober, Donnerstag

    Zeit Temperatur Niederschläge Wind Luftdruck Luftfeuchtigkeit
    00:00 -1°C° 0 mm 3 m/S 744 mmHg 80%
    01:00 -2°C° 0 mm 3 m/S 744 mmHg 80%
    02:00 -2°C° 0 mm 3 m/S 744 mmHg 80%
    03:00 -2°C° 0 mm 3 m/S 745 mmHg 80%
    04:00 -2°C° 0 mm 3 m/S 745 mmHg 80%
    05:00 -2°C° 0 mm 3 m/S 745 mmHg 81%
    06:00 -2°C° 0 mm 3 m/S 745 mmHg 81%
    07:00 -2°C° 0 mm 3 m/S 746 mmHg 81%
    08:00 -1°C° 0 mm 3 m/S 746 mmHg 76%
    09:00 0°C° 0 mm 3 m/S 746 mmHg 71%
    10:00 0°C° 0 mm 3 m/S 746 mmHg 66%
    11:00 0°C° 0 mm 3 m/S 746 mmHg 65%
    12:00 +1°C° 0 mm 3 m/S 746 mmHg 64%
    13:00 +1°C° 0 mm 3 m/S 746 mmHg 64%
    14:00 +1°C° 0 mm 3 m/S 745 mmHg 66%
    15:00 0°C° 0 mm 3 m/S 745 mmHg 68%
    16:00 +1°C° 0 mm 2 m/S 745 mmHg 70%
    17:00 -1°C° 0 mm 2 m/S 745 mmHg 74%
    18:00 -1°C° 0 mm 2 m/S 744 mmHg 79%
    19:00 0°C° 0 mm 1 m/S 744 mmHg 83%
    20:00 0°C° 0.2 mm 1 m/S 744 mmHg 87%
    21:00 0°C° 0.2 mm 1 m/S 743 mmHg 91%
    22:00 0°C° 0.2 mm 1 m/S 743 mmHg 94%
    23:00 0°C° 0.4 mm 1 m/S 742 mmHg 95%

    übermorgen, 18 Oktober, Freitag

    Zeit Temperatur Niederschläge Wind Luftdruck Luftfeuchtigkeit
    00:00 0°C° 0.4 mm 1 m/S 742 mmHg 96%
    01:00 0°C° 0.4 mm 1 m/S 741 mmHg 96%
    02:00 0°C° 0.2 mm 1 m/S 741 mmHg 96%
    03:00 0°C° 0.2 mm 1 m/S 741 mmHg 96%
    04:00 0°C° 0.2 mm 1 m/S 741 mmHg 96%
    05:00 -2°C° 0.3 mm 2 m/S 740 mmHg 96%
    06:00 -3°C° 0.3 mm 2 m/S 740 mmHg 96%
    07:00 -3°C° 0.3 mm 2 m/S 740 mmHg 96%
    08:00 -2°C° 0.2 mm 2 m/S 740 mmHg 93%
    09:00 -2°C° 0.2 mm 3 m/S 741 mmHg 91%
    10:00 -1°C° 0.2 mm 3 m/S 741 mmHg 88%
    11:00 -1°C° 0.2 mm 3 m/S 741 mmHg 87%
    12:00 -2°C° 0.2 mm 4 m/S 742 mmHg 85%
    13:00 -1°C° 0.2 mm 4 m/S 742 mmHg 84%
    14:00 -2°C° 0.1 mm 4 m/S 743 mmHg 83%
    15:00 -3°C° 0.1 mm 4 m/S 743 mmHg 83%
    16:00 -3°C° 0.1 mm 4 m/S 744 mmHg 83%
    17:00 -4°C° 0 mm 4 m/S 745 mmHg 82%
    18:00 -4°C° 0 mm 4 m/S 745 mmHg 81%
    19:00 -4°C° 0 mm 4 m/S 746 mmHg 79%
    20:00 -5°C° 0 mm 3 m/S 746 mmHg 82%
    21:00 -6°C° 0 mm 3 m/S 747 mmHg 85%
    22:00 -6°C° 0 mm 2 m/S 748 mmHg 87%
    23:00 -6°C° 0 mm 2 m/S 748 mmHg 89%

    19 Oktober, Samstag

    Zeit Temperatur Niederschläge Wind Luftdruck Luftfeuchtigkeit
    00:00 -6°C° 0 mm 2 m/S 748 mmHg 91%
    01:00 -6°C° 0 mm 1 m/S 749 mmHg 92%
    02:00 -6°C° 0 mm 1 m/S 749 mmHg 92%
    03:00 -6°C° 0 mm 1 m/S 750 mmHg 92%
    04:00 -6°C° 0 mm 1 m/S 750 mmHg 92%
    05:00 -6°C° 0 mm 1 m/S 750 mmHg 92%
    06:00 -6°C° 0 mm 1 m/S 751 mmHg 92%
    07:00 -6°C° 0 mm 1 m/S 751 mmHg 91%
    08:00 -5°C° 0 mm 0 m/S 751 mmHg 83%
    09:00 -3°C° 0 mm 0 m/S 752 mmHg 74%
    10:00 -2°C° 0 mm 0 m/S 752 mmHg 66%
    11:00 -1°C° 0 mm 0 m/S 752 mmHg 62%
    12:00 0°C° 0 mm 0 m/S 752 mmHg 58%
    13:00 +1°C° 0 mm 1 m/S 752 mmHg 54%
    14:00 +1°C° 0 mm 1 m/S 752 mmHg 59%
    15:00 0°C° 0 mm 1 m/S 752 mmHg 63%
    16:00 0°C° 0 mm 1 m/S 752 mmHg 67%
    17:00 -1°C° 0 mm 1 m/S 752 mmHg 71%
    18:00 -2°C° 0 mm 1 m/S 752 mmHg 76%
    19:00 -3°C° 0 mm 1 m/S 752 mmHg 80%
    20:00 -3°C° 0 mm 1 m/S 752 mmHg 80%
    21:00 -3°C° 0 mm 1 m/S 752 mmHg 80%
    22:00 -5°C° 0 mm 2 m/S 752 mmHg 80%
    23:00 -5°C° 0 mm 2 m/S 752 mmHg 81%

    20 Oktober, Sonntag

    Zeit Temperatur Niederschläge Wind Luftdruck Luftfeuchtigkeit
    00:00 -6°C° 0 mm 2 m/S 752 mmHg 81%
    01:00 -6°C° 0 mm 2 m/S 752 mmHg 81%
    02:00 -5°C° 0 mm 2 m/S 752 mmHg 81%
    03:00 -5°C° 0 mm 2 m/S 752 mmHg 81%
    04:00 -5°C° 0 mm 2 m/S 752 mmHg 80%
    05:00 -5°C° 0 mm 2 m/S 751 mmHg 81%
    06:00 -5°C° 0 mm 2 m/S 751 mmHg 81%
    07:00 -6°C° 0 mm 3 m/S 751 mmHg 82%
    08:00 -5°C° 0 mm 3 m/S 751 mmHg 75%
    09:00 -4°C° 0 mm 3 m/S 750 mmHg 69%
    10:00 -3°C° 0 mm 4 m/S 750 mmHg 63%
    11:00 -2°C° 0 mm 4 m/S 749 mmHg 61%
    12:00 -1°C° 0 mm 4 m/S 749 mmHg 59%
    13:00 0°C° 0 mm 5 m/S 748 mmHg 57%
    14:00 -1°C° 0 mm 5 m/S 748 mmHg 61%
    15:00 -1°C° 0 mm 5 m/S 747 mmHg 64%
    16:00 -1°C° 0 mm 5 m/S 747 mmHg 67%
    17:00 -1°C° 0 mm 5 m/S 746 mmHg 71%
    18:00 -2°C° 0 mm 6 m/S 746 mmHg 74%
    19:00 -2°C° 0 mm 6 m/S 746 mmHg 77%
    20:00 -2°C° 0.1 mm 6 m/S 745 mmHg 80%
    21:00 -2°C° 0.1 mm 6 m/S 745 mmHg 82%
    22:00 -2°C° 0.1 mm 6 m/S 745 mmHg 85%
    23:00 0°C° 0 mm 5 m/S 744 mmHg 87%

    21 Oktober, Montag

    Zeit Temperatur Niederschläge Wind Luftdruck Luftfeuchtigkeit
    00:00 0°C° 0 mm 4 m/S 744 mmHg 89%
    01:00 +1°C° 0 mm 3 m/S 744 mmHg 91%
    02:00 +2°C° 0.1 mm 3 m/S 744 mmHg 92%
    03:00 +2°C° 0.1 mm 3 m/S 743 mmHg 92%
    04:00 +2°C° 0.1 mm 3 m/S 743 mmHg 93%
    05:00 +3°C° 0 mm 2 m/S 743 mmHg 94%
    06:00 +3°C° 0 mm 2 m/S 743 mmHg 94%
    07:00 +3°C° 0 mm 2 m/S 743 mmHg 94%
    08:00 +3°C° 0 mm 2 m/S 743 mmHg 93%
    09:00 +4°C° 0 mm 2 m/S 744 mmHg 91%
    10:00 +4°C° 0 mm 2 m/S 744 mmHg 90%
    11:00 +5°C° 0 mm 2 m/S 744 mmHg 88%
    12:00 +5°C° 0 mm 2 m/S 745 mmHg 86%
    13:00 +7°C° 0 mm 1 m/S 745 mmHg 84%
    14:00 +6°C° 0 mm 1 m/S 745 mmHg 88%
    15:00 +5°C° 0 mm 1 m/S 746 mmHg 93%
    16:00 +4°C° 0 mm 1 m/S 746 mmHg 97%
    17:00 +3°C° 0.1 mm 1 m/S 746 mmHg 97%
    18:00 +3°C° 0.1 mm 1 m/S 747 mmHg 97%
    19:00 +2°C° 0.1 mm 1 m/S 747 mmHg 98%
    20:00 +2°C° 0 mm 1 m/S 747 mmHg 98%
    21:00 +2°C° 0 mm 1 m/S 747 mmHg 98%
    22:00 +2°C° 0 mm 1 m/S 747 mmHg 98%
    23:00 +2°C° 0 mm 1 m/S 747 mmHg 98%
    Mehr zeigen